[[{"header":{"parameterUnit":"m.s-1","parameterCategory":1,"la1":30.2991,"la2":30.254,"lo1":-89.0895,"lo2":-89.0444,"dy":0.0017,"dx":0.0017,"nx":28,"ny":28,"refTime":"2024-06-25T03:00:00:Z","depth":0,"parameterNumber":2,"parameterNumberName":"U-component_of_WINDS"},"data":[0,0,0,0,0,0,0,0,0,0,0,0,0,0,0,0,0,0,0,0,0,0,0,0,0,0,0,0,0,0,0,0,0,0,0,0,0,0,0,0,0,0,0,0,0,0,0,0,0,0,0,0,0,0,0,0,0,0,0.0432,0.0435,0,0.0718,0.0721,0.0725,0.0903,0.0904,0.0905,0.0906,0.1195,0.1201,0.1208,0,0,0,0,0,0,0,0,0,0,0,0,0,0.0034,0.004,0.0431,0.0435,0.0438,0.0718,0.0721,0.0725,0.0903,0.0904,0.0905,0.0906,0.1193,0.1201,0.1209,0,0,0,0,0,0,0,0,0,0,0,0,0,0.0252,0.0043,0.0431,0.0561,0.0575,0.0717,0.0722,0.0726,0.0902,0.0904,0.0905,0.0907,0.119,0.12,0.121,0.1243,0,0,0.1241,0.1245,0,0,0,0,0,0,0,0,0.0239,0.0266,0.0538,0.0552,0.0568,0.0776,0.0688,0.09,0.0902,0.0778,0.0906,0.0907,0.1054,0.1076,0.1126,0.1257,0.1269,0.1242,0.1248,0.1252,0.1255,0,0,0,0,0,0,0,0.0224,0.0255,0.0545,0.0542,0.056,0.0604,0.0636,0.0729,0.0904,0.0789,0.0803,0.0834,0.1063,0.1116,0.1134,0.1274,0.1242,0.1251,0.1257,0.1261,0.1447,0.1446,0,0,0,0,0,0,0.0189,0.0241,0.0536,0.0553,0.0404,0.0609,0.0646,0.0708,0.0904,0.0935,0.0833,0.0841,0.1098,0.1122,0.1145,0.1199,0.1252,0.1262,0.1268,0.1449,0.1447,0.1446,0,0,0,0,0,0,0.018,0.0213,0.0524,0.0401,0.0444,0.0615,0.0683,0.0713,0.0766,0.0937,0.0969,0.0855,0.11,0.1131,0.1218,0.1211,0.1267,0.1276,0.145,0.1448,0.1447,0.1305,0,0,0,0,0,0,0.0167,0.0209,0.0224,0.04,0.045,0.0593,0.0683,0.0717,0.0784,0.0798,0.0966,0.0995,0.1103,0.1202,0.1228,0.1226,0.1284,0.1451,0.1449,0.1447,0.1311,0.1298,0.1288,0,0,0,0,0,0.0153,0.0172,0.0224,0.0259,0.0473,0.0593,0.0621,0.0746,0.0782,0.0799,0.0909,0.099,0.1207,0.1209,0.1241,0.1241,0.1453,0.145,0.1447,0.1316,0.1301,0.1288,0,0,0,0,0,0,-0.001,0.0197,0.0258,0.0335,0.0445,0.0622,0.0647,0.0726,0.0827,0.0835,0.0985,0.1021,0.1094,0.1176,0.1175,0.1284,0.1339,0.1342,0.1228,0.1215,0.1204,0.1183,0.1292,0,0,0,0,0,-0.0037,0.0044,0.022,0.0271,0.0323,0.0475,0.0532,0.0619,0.0738,0.0785,0.0902,0.1013,0.1107,0.1165,0.1261,0.1323,0.1362,0.1338,0.1327,0.1316,0.1318,0.1358,0.135,0.1437,0.1437,0.1438,0,0,-0.0092,0.0032,0.0073,0.0242,0.0337,0.0417,0.0513,0.0593,0.0654,0.0797,0.0888,0.0976,0.1111,0.1186,0.1225,0.1257,0.1302,0.1313,0.1303,0.1311,0.1354,0.1346,0.1338,0.1436,0.1436,0.1436,0,0,-0.015,-0.0049,0.0005,0.0099,0.0243,0.0344,0.0356,0.0522,0.0587,0.068,0.079,0.0863,0.1021,0.1113,0.118,0.1155,0.1234,0.1181,0.1121,0.1158,0.1151,0.1146,0.1139,0.1134,0.1182,0.1182,0.1181,0,-0.0236,-0.011,0.0023,0.0097,0.0168,0.0302,0.0358,0.0442,0.0608,0.0653,0.0687,0.0889,0.0988,0.1087,0.1081,0.113,0.115,0.1164,0.1142,0.1138,0.1135,0.1129,0.1126,0.1175,0.1175,0.1176,0.1177,0,-0.0223,-0.0138,-0.0112,0.0048,0.0121,0.0185,0.0327,0.0385,0.0464,0.0561,0.0654,0.0779,0.0902,0.0932,0.1009,0.1042,0.1057,0.1114,0.1172,0.1117,0.1114,0.1113,0.1164,0.1167,0.1169,0.1171,0,0,-0.0373,-0.0142,-0.0134,-0.006,0.0107,0.0176,0.0245,0.0367,0.0414,0.0524,0.0586,0.0716,0.0771,0.0846,0.0936,0.0967,0.0941,0.1021,0.1027,0.1003,0.0986,0.0943,0.0939,0.0994,0.0994,0.0994,0.0975,0,-0.0405,-0.0271,-0.015,-0.0061,0.002,0.0147,0.0208,0.0317,0.0408,0.0489,0.059,0.0681,0.0744,0.0791,0.0828,0.0936,0.094,0.0939,0.1053,0.1056,0.1018,0.0937,0.0893,0.0869,0.0974,0.0974,0.0974,0,-0.0424,-0.0318,-0.0221,-0.0061,-0.0022,0.003,0.0152,0.0228,0.0353,0.0417,0.0502,0.0596,0.0674,0.0722,0.0833,0.083,0.0883,0.0943,0.0945,0.0962,0.1013,0.0953,0.0864,0.0861,0.0974,0.0974,0.0974,0,-0.0541,-0.0375,-0.0295,-0.0236,-0.0048,-0.0014,0.0066,0.0193,0.0259,0.0364,0.0409,0.052,0.0582,0.0666,0.0788,0.0811,0.0886,0.0944,0.0942,0.0939,0.0954,0.0951,0.0873,0.0984,0.0984,0.0984,0.0984,0,-0.0588,-0.0533,-0.0345,-0.0296,-0.023,-0.0093,-0.0032,0.0058,0.017,0.0239,0.0355,0.0416,0.0572,0.0652,0.0747,0.0825,0.0851,0.0905,0.093,0.0896,0.089,0.0935,0.094,0.0983,0.0983,0.0983,0.0984,0,-0.0707,-0.0579,-0.0483,-0.0313,-0.0269,-0.0229,-0.0083,-0.003,0.0067,0.0152,0.018,0.0333,0.0433,0.0562,0.0703,0.0767,0.0834,0.0871,0.0792,0.0807,0.0799,0.0798,0.0749,0.075,0.0856,0.0854,0.0853,0,-0.0744,-0.0699,-0.0524,-0.0469,-0.0393,-0.0306,-0.0238,-0.0102,-0.0036,0.011,0.0144,0.0253,0.0349,0.0502,0.0626,0.0733,0.0776,0.0751,0.0793,0.0757,0.0777,0.0774,0.078,0.074,0.0739,0.0737,0.0736,0,-0.0823,-0.0762,-0.0669,-0.0553,-0.0475,-0.0378,-0.0276,-0.0238,-0.008,-0.0013,0.0092,0.0165,0.0309,0.0416,0.054,0.0622,0.0705,0.0721,0.0727,0.0694,0.0647,0.0674,0.0765,0.0722,0.0724,0.0725,0.0725,0.0726,-0.09,-0.0854,-0.0723,-0.0623,-0.0532,-0.0439,-0.0381,-0.0276,-0.0186,-0.0057,0.0017,0.0119,0.0243,0.0418,0.0495,0.0577,0.0608,0.0616,0.0618,0.0619,0.0608,0.0632,0.0599,0.06,0.06,0.0601,0.0601,0,-0.0971,-0.0882,-0.0791,-0.0651,-0.0572,-0.0501,-0.0384,-0.0323,-0.0235,-0.0126,-0.0035,0.0085,0.019,0.032,0.0433,0.0473,0.0514,0.0498,0.0498,0.0516,0.0573,0.0558,0.0463,0.0463,0.0463,0.0463,0.0463,0.0463,-0.0999,-0.0916,-0.084,-0.0711,-0.0621,-0.0519,-0.0459,-0.0373,-0.0285,-0.0156,-0.0068,0.0016,0.0134,0.0256,0.0355,0.0391,0.0428,0.04,0.0447,0.0499,0.0511,0.0523,0.051,0.0407,0.0407,0.0384,0.0384,0.0384]},{"header":{"parameterUnit":"m.s-1","parameterCategory":1,"la1":30.2991,"la2":30.254,"lo1":-89.0895,"lo2":-89.0444,"dy":0.0017,"dx":0.0017,"nx":28,"ny":28,"refTime":"2024-06-25T03:00:00:Z","depth":0,"parameterNumber":3,"parameterNumberName":"V-component_of_WINDS"},"data":[0,0,0,0,0,0,0,0,0,0,0,0,0,0,0,0,0,0,0,0,0,0,0,0,0,0,0,0,0,0,0,0,0,0,0,0,0,0,0,0,0,0,0,0,0,0,0,0,0,0,0,0,0,0,0,0,0,0,-0.3273,-0.3271,0,-0.3104,-0.3102,-0.31,-0.2932,-0.2929,-0.2927,-0.2925,-0.2754,-0.2751,-0.2749,0,0,0,0,0,0,0,0,0,0,0,0,0,-0.3452,-0.3449,-0.3273,-0.3271,-0.3269,-0.3104,-0.3102,-0.3099,-0.2932,-0.2929,-0.2927,-0.2924,-0.2755,-0.2752,-0.2749,0,0,0,0,0,0,0,0,0,0,0,0,0,-0.3338,-0.3449,-0.3274,-0.3166,-0.3154,-0.3104,-0.3102,-0.3099,-0.2933,-0.2929,-0.2926,-0.2923,-0.2756,-0.2752,-0.2748,-0.2792,0,0,-0.2737,-0.2735,0,0,0,0,0,0,0,0,-0.3344,-0.3331,-0.3184,-0.3173,-0.316,-0.3035,-0.3102,-0.2996,-0.2934,-0.3017,-0.2925,-0.2921,-0.285,-0.2839,-0.2814,-0.2784,-0.2777,-0.2737,-0.2734,-0.2733,-0.2732,0,0,0,0,0,0,0,-0.3353,-0.3338,-0.3206,-0.3182,-0.3167,-0.3126,-0.3106,-0.3081,-0.2955,-0.3009,-0.2997,-0.2979,-0.2843,-0.2818,-0.2809,-0.2774,-0.2737,-0.2733,-0.2731,-0.273,-0.2768,-0.2771,0,0,0,0,0,0,-0.3377,-0.3345,-0.3211,-0.3201,-0.3246,-0.3125,-0.3103,-0.3079,-0.2954,-0.2932,-0.2982,-0.2972,-0.2826,-0.2814,-0.2802,-0.2842,-0.2733,-0.2729,-0.2727,-0.2765,-0.2769,-0.2772,0,0,0,0,0,0,-0.3381,-0.3366,-0.3218,-0.327,-0.3248,-0.3126,-0.31,-0.3077,-0.3052,-0.2933,-0.291,-0.2979,-0.2823,-0.2808,-0.2795,-0.2834,-0.2728,-0.2724,-0.2761,-0.2766,-0.277,-0.2926,0,0,0,0,0,0,-0.3387,-0.3369,-0.3385,-0.3271,-0.3246,-0.3214,-0.3102,-0.3076,-0.3046,-0.3031,-0.2925,-0.2904,-0.2819,-0.2801,-0.2791,-0.2827,-0.2721,-0.2757,-0.2763,-0.2769,-0.2916,-0.2935,-0.2951,0,0,0,0,0,-0.3394,-0.3436,-0.3386,-0.3371,-0.3262,-0.3217,-0.3202,-0.3103,-0.305,-0.3064,-0.2987,-0.2908,-0.2832,-0.2802,-0.2789,-0.2824,-0.2754,-0.2761,-0.2768,-0.2908,-0.2931,-0.2951,0,0,0,0,0,0,-0.3558,-0.3419,-0.3362,-0.3369,-0.3306,-0.3189,-0.3204,-0.3131,-0.3082,-0.307,-0.295,-0.2927,-0.2928,-0.2875,-0.2843,-0.2858,-0.2782,-0.2787,-0.2893,-0.2913,-0.2931,-0.2942,-0.2718,0,0,0,0,0,-0.3595,-0.357,-0.345,-0.3467,-0.3438,-0.3327,-0.3304,-0.3232,-0.3162,-0.3135,-0.3057,-0.2993,-0.2954,-0.2931,-0.2889,-0.2908,-0.2881,-0.2926,-0.2944,-0.2959,-0.2964,-0.2967,-0.2985,-0.2796,-0.2796,-0.2796,0,0,-0.3672,-0.3592,-0.3584,-0.3498,-0.3441,-0.3417,-0.3306,-0.3286,-0.3266,-0.3132,-0.3114,-0.3056,-0.2975,-0.2978,-0.2975,-0.2934,-0.301,-0.2968,-0.2981,-0.2977,-0.2976,-0.2994,-0.301,-0.2801,-0.28,-0.2799,0,0,-0.3797,-0.3736,-0.3742,-0.3686,-0.36,-0.3526,-0.3528,-0.3421,-0.3376,-0.3356,-0.3254,-0.323,-0.3166,-0.3112,-0.3076,-0.318,-0.3104,-0.317,-0.326,-0.3265,-0.328,-0.3292,-0.3326,-0.3341,-0.3176,-0.3176,-0.3177,0,-0.3903,-0.3862,-0.3755,-0.374,-0.3704,-0.3581,-0.3585,-0.3537,-0.3443,-0.3421,-0.3376,-0.3291,-0.3229,-0.3215,-0.324,-0.3217,-0.3213,-0.3181,-0.3286,-0.3298,-0.3308,-0.3339,-0.3353,-0.3185,-0.3184,-0.3183,-0.3182,0,-0.3994,-0.3968,-0.3983,-0.3893,-0.3859,-0.3855,-0.3747,-0.3726,-0.3657,-0.3587,-0.3568,-0.3488,-0.3426,-0.3418,-0.3353,-0.3395,-0.3372,-0.3309,-0.3229,-0.3336,-0.3363,-0.3374,-0.3197,-0.3194,-0.3191,-0.3189,0,0,-0.4218,-0.4068,-0.4075,-0.4032,-0.3927,-0.3904,-0.3894,-0.3832,-0.3815,-0.3754,-0.3741,-0.3689,-0.3629,-0.3588,-0.3515,-0.352,-0.3603,-0.3454,-0.3451,-0.3483,-0.3642,-0.3688,-0.3704,-0.3553,-0.3554,-0.3556,-0.3648,0,-0.4324,-0.4296,-0.4199,-0.42,-0.4173,-0.4055,-0.4045,-0.398,-0.3914,-0.3881,-0.3808,-0.3772,-0.3697,-0.3671,-0.367,-0.3593,-0.3633,-0.3586,-0.3537,-0.3537,-0.3559,-0.3719,-0.3768,-0.3859,-0.3658,-0.366,-0.3661,0,-0.4443,-0.4388,-0.4387,-0.4281,-0.4265,-0.4259,-0.4193,-0.4164,-0.4087,-0.4038,-0.3993,-0.391,-0.3891,-0.3818,-0.3789,-0.3759,-0.3733,-0.3693,-0.3693,-0.3683,-0.3604,-0.3711,-0.3885,-0.3898,-0.3677,-0.3676,-0.3675,0,-0.4603,-0.4529,-0.4517,-0.4484,-0.4361,-0.4359,-0.4308,-0.4227,-0.4196,-0.4139,-0.4117,-0.406,-0.4028,-0.3985,-0.3888,-0.3845,-0.3869,-0.3789,-0.3827,-0.3829,-0.3835,-0.3836,-0.4006,-0.3824,-0.3824,-0.3824,-0.3824,0,-0.4729,-0.4732,-0.4587,-0.458,-0.4579,-0.4468,-0.447,-0.4407,-0.4337,-0.4314,-0.421,-0.4192,-0.4067,-0.4034,-0.3959,-0.3944,-0.3931,-0.389,-0.387,-0.3898,-0.3903,-0.3878,-0.3868,-0.3827,-0.3826,-0.3826,-0.3825,0,-0.4907,-0.481,-0.4789,-0.4674,-0.4645,-0.465,-0.4551,-0.4539,-0.4467,-0.444,-0.4427,-0.4314,-0.4269,-0.4169,-0.4098,-0.4047,-0.4051,-0.4016,-0.4077,-0.4063,-0.4106,-0.4102,-0.4264,-0.4278,-0.4091,-0.4093,-0.4094,0,-0.4993,-0.4992,-0.4877,-0.4854,-0.4806,-0.4772,-0.4739,-0.4629,-0.4599,-0.451,-0.4508,-0.4455,-0.4407,-0.4341,-0.4252,-0.4196,-0.4157,-0.4218,-0.4148,-0.4175,-0.4154,-0.4154,-0.4152,-0.4233,-0.4235,-0.4237,-0.4239,0,-0.5154,-0.5106,-0.5062,-0.5001,-0.4964,-0.4912,-0.4853,-0.484,-0.4716,-0.4687,-0.464,-0.4602,-0.4529,-0.4476,-0.4407,-0.4353,-0.4275,-0.4262,-0.4267,-0.4294,-0.4328,-0.4307,-0.4116,-0.4258,-0.4256,-0.4255,-0.4254,-0.4253,-0.5286,-0.5278,-0.5196,-0.515,-0.5094,-0.5041,-0.5023,-0.4948,-0.4907,-0.4838,-0.4776,-0.4734,-0.4654,-0.4553,-0.4505,-0.4469,-0.443,-0.4439,-0.444,-0.4443,-0.4454,-0.4337,-0.4457,-0.4456,-0.4455,-0.4455,-0.4454,0,-0.5439,-0.538,-0.5339,-0.5259,-0.5223,-0.5153,-0.5084,-0.5058,-0.5022,-0.4955,-0.4909,-0.4853,-0.4801,-0.4708,-0.4648,-0.4638,-0.46,-0.4626,-0.4624,-0.4612,-0.4494,-0.4494,-0.4657,-0.4657,-0.4657,-0.4657,-0.4657,-0.4657,-0.5514,-0.5497,-0.5439,-0.5393,-0.5333,-0.5291,-0.5257,-0.5207,-0.5152,-0.5095,-0.5051,-0.4991,-0.4912,-0.4846,-0.4795,-0.4768,-0.475,-0.4786,-0.4749,-0.464,-0.4621,-0.4603,-0.4602,-0.4784,-0.4784,-0.4868,-0.4869,-0.487]}]]